Miscellaneous Local Product
Issued by NWS North Platte, NE

Home | Current Version | Previous Version | Text Only | Print | Product List | Glossary On
Versions: 1 2 3 4 5 6 7 8 9 10 11 12 13 14 15 16 17 18 19 20 21 22 23 24 25 26 27 28 29 30 31 32 33 34 35 36 37 38 39 40 41 42 43 44 45 46 47 48 49 50
000
AXUS43 KLBF 280210
MISLBF


WESTERN AND NORTH CENTRAL NEBRASKA HOURLY WEATHER ROUNDUP
NATIONAL WEATHER SERVICE NORTH PLATTE NE
900 PM CDT SUN JUL 27 2014

***STATIONS NOT REPORTING VARIABLES SUCH AS SKY/WEATHER OR
PRESSURE ARE PROVIDED BY THE NEBRASKA DEPARTMENT OF
ROADS...RAWS...AND APRS NETWORKS...AND ARE NOT UNDER
NATIONAL WEATHER SERVICE QUALITY CONTROL***

...OBSERVATIONS IN AND NEAR THE EASTERN PANHANDLE OF NEBRASKA...

CITY           SKY/WX    TMP DP  RH WIND       PRES   REMARKS
PINE RIDGE     CLEAR     71  54  54 NE6       30.27R
CHADRON        CLEAR     76  50  40 E8        30.26R
ALLIANCE       CLEAR     77  47  34 E9        30.27S
SIDNEY         MOCLDY    78  44  29 S8        30.31R
WHITECLAY        N/A     74  49  41 E5          N/A
RUSHVILLE        N/A     74  44  33 NE13        N/A
GORDON           N/A     75  50  41 E10         N/A
CRESCENT LAKE    N/A     77  45  31 E8          N/A
LISCO            N/A     82  48  30 E3          N/A
BIG SPRINGS      N/A     85  56  36 SE3         N/A
$$

...OBSERVATIONS IN NORTH CENTRAL NEBRASKA...

CITY           SKY/WX    TMP DP  RH WIND       PRES   REMARKS
VALENTINE      CLEAR     75  52  44 NE10      30.25R
THEDFORD       CLEAR     74  51  45 NE6       30.26R
AINSWORTH      CLEAR     69  53  57 N7        30.25R
O`NEILL        CLEAR     69  53  56 N7        30.22R
ORD            CLEAR     71  56  58 N6        30.19R
BROKEN BOW     CLEAR     68  58  70 NW5       30.22R
BROWNLEE         N/A     75  49  38 N8          N/A
SPRINGVIEW       N/A     73  53  48 NE3         N/A
DUNNING          N/A     75  51  42 CALM        N/A
ROSE             N/A     75  58  55 N7          N/A
NEWPORT          N/A     70  54  56 CALM        N/A
SARGENT          N/A     75  56  51 CALM        N/A
COMSTOCK         N/A     76  61  58 CALM        N/A
CHAMBERS         N/A     71  50  46 N6          N/A
EWING            N/A     67  57  70 CALM        N/A
$$

...OBSERVATIONS IN SOUTHWEST NEBRASKA AND FAR NORTHEAST COLORADO...

CITY           SKY/WX    TMP DP  RH WIND       PRES   REMARKS
WRAY             N/A     80  47  30 NE8       30.27R
HOLYOKE        FAIR      73  54  49 E6        30.28S
IMPERIAL       CLOUDY    78  55  44 E7        30.25S
OGALLALA       CLEAR     75  52  43 E5        30.26R
NORTH PLATTE   CLEAR     73  50  44 NE7       30.23R
MCCOOK         PTCLDY    77  54  44 E7        30.22R
LEXINGTON      CLEAR     72  56  55 N6        30.22R
PAXTON           N/A     84  52  32 CALM        N/A
SUTHERLAND       N/A     79  54  41 SE3         N/A
BRADY            N/A     75  50  41 CALM        N/A
CALLAWAY         N/A     81  58  45 N7          N/A
$$

...SOME WEATHER OBSERVATIONS FROM AROUND THE REGION...

CITY           SKY/WX    TMP DP  RH WIND       PRES   REMARKS
DENVER         CLOUDY    77  58  51 SW10      30.32R
LARAMIE        PTCLDY    67  56  67 SE10      30.43F
CHEYENNE       MOCLDY    73  51  46 SE8       30.38R
SCOTTSBLUFF    CLEAR     78  57  48 E7        30.26S
RAPID CITY     CLEAR     70  52  52 NE8       30.27R
PIERRE         CLEAR     69  54  58 N10       30.22R
WINNER         FAIR      71  51  49 N10       30.23R
SIOUX FALLS    PTCLDY    64  56  75 NW9       30.17S
OMAHA          PTCLDY    72  56  57 NW8       30.12R
GRAND ISLAND   CLEAR     71  61  70 NE7       30.19R
KANSAS CITY    CLEAR     73  59  61 N8        30.09R
WICHITA        PTCLDY    82  53  36 N6        30.10R
HAYS           CLEAR     77  54  44 NE6       30.19R
LIBERAL        CLEAR     79  57  47 E9        30.24R
GOODLAND       CLEAR     74  53  48 SE5       30.28R
$$



USA.gov is the U.S. government's official web portal to all federal, state and local government web resources and services.